GEOSCAN 2 (RS92S2)

Last updated on Thu Oct 30 2025 00:03:11 GMT+0000 (Coordinated Universal Time)

1 64890U 25155Q 25302.48171248 .00014694 00000+0 59667-3 0 9991 2 64890 97.4273 266.6123 0005283 257.8797 102.1848 15.24674548 45559
UTC large
Height (km)
Speed (km/s)
/
Latitude / Longitude
Inclination (degrees)
Orbital Period (minutes)
Azimuth
Elevation
Range (km)
Doppler Factor

Next 0 passes for location: London (51.5072 / 0.1276)

Sorry there are no passes over London.